Location: Csohesd
(46.2500°N, 22.6167°E)
Time: 06:08:52
(UTC+00:00)

Cosmos 1980 Rocket - Pass Details

Date: 21 October 2021
Orbit: 828 x 851 km, 71.0° (Epoch: 04 December)

Event Time Altitude Azimuth Distance (km) Brightness Sun altitude
Rises 15:57:19 0° 197° (SSW) 3,377 5.7 -5.0°
Reaches altitude 10° 15:59:44 10° 196° (SSW) 2,450 5.0 -5.4°
Maximum altitude 16:05:20 71° 113° (ESE) 892 2.2 -6.4°
Drops below altitude 10° 16:11:00 10° 30° (NNE) 2,481 4.3 -7.3°
Sets 16:13:29 0° 29° (NNE) 3,423 5.0 -7.8°
